Weather History for Worthington, MN

Change the Weather History Date:

Thursday, December 26, 2013

  Actual Average Record
Temperature  
Mean Temperature 22 °F -  
Max Temperature 30 °F 22 °F 50 °F (2011)
Min Temperature 15 °F 8 °F -16 °F (1996)
Degree Days  
Heating Degree Days 42    
Moisture  
Dew Point 16 °F    
Average Humidity 71    
Maximum Humidity 86    
Minimum Humidity 64    
Precipitation  
Precipitation 0.00 in - - ()
Sea Level Pressure  
Sea Level Pressure 30.08 in    
Wind  
Wind Speed 10 mph (WSW)    
Max Wind Speed 16 mph    
Max Gust Speed 18 mph    
Visibility 10 miles    
Events      
Averages and records for this station are not official NWS values.
T = Trace of Precipitation, MM = Missing Value Source: NWS Daily Summary

Daily Weather History Graph

Daily Weather History Graph

Search for Another Location

Airport:

Trip Planner

Search our weather history database for the weather conditions in past years. The results will help you decide how hot, cold, wet, or windy it might be!

Date:

Astronomy

Dec. 26, 2013 Rise Set
Actual Time 7:54 AM CST 4:51 PM CST
Civil Twilight 7:21 AM CST 5:24 PM CST
Nautical Twilight 6:45 AM CST 6:00 PM CST
Astronomical Twilight 6:10 AM CST 6:35 PM CST
Moon 1:15 AM CST (12/26) 12:35 PM CST (12/26)
Length of Visible Light 10h 02m
Length of Day
8h 56m
Last Quarter, 38% of the Moon is Illuminated
Dec 26
Last Quarter
Jan 1
New
Jan 7
First Quarter
Jan 15
Full
Jan 23
Last Quarter

Hourly Weather History & Observations

Time (CST) Temp. Windchill Dew Point Humidity Pressure Visibility Wind Dir Wind Speed Gust Speed Precip Events Conditions
12:15 AM 21.2 °F 12.6 °F 15.8 °F 80% 30.10 in 10.0 mi West 6.9 mph - N/A   Overcast
12:35 AM 23.0 °F 13.9 °F 15.8 °F 74% 30.09 in 10.0 mi WSW 8.1 mph - N/A   Mostly Cloudy
12:55 AM 23.0 °F 11.7 °F 15.8 °F 74% 30.08 in 10.0 mi WSW 11.5 mph - N/A   Mostly Cloudy
1:15 AM 24.8 °F 11.9 °F 15.8 °F 69% 30.07 in 10.0 mi WSW 16.1 mph - N/A   Overcast
1:35 AM 24.8 °F 12.9 °F 17.6 °F 74% 30.06 in 10.0 mi WSW 13.8 mph - N/A   Overcast
1:55 AM 24.8 °F 14.0 °F 17.6 °F 74% 30.06 in 10.0 mi WSW 11.5 mph - N/A   Overcast
2:15 AM 24.8 °F 15.3 °F 17.6 °F 74% 30.07 in 10.0 mi WSW 9.2 mph - N/A   Overcast
2:35 AM 24.8 °F 15.3 °F 17.6 °F 74% 30.07 in 10.0 mi WSW 9.2 mph - N/A   Scattered Clouds
2:55 AM 24.8 °F 15.3 °F 15.8 °F 69% 30.07 in 10.0 mi SW 9.2 mph - N/A   Clear
3:15 AM 23.0 °F 13.1 °F 15.8 °F 74% 30.07 in 10.0 mi WSW 9.2 mph - N/A   Clear
3:35 AM 24.8 °F 14.6 °F 15.8 °F 69% 30.07 in 10.0 mi WSW 10.4 mph - N/A   Clear
3:55 AM 24.8 °F 14.6 °F 15.8 °F 69% 30.06 in 10.0 mi SW 10.4 mph - N/A   Clear
4:15 AM 24.8 °F 15.3 °F 15.8 °F 69% 30.05 in 10.0 mi West 9.2 mph - N/A   Scattered Clouds
4:35 AM 24.8 °F 16.1 °F 15.8 °F 69% 30.04 in 10.0 mi WSW 8.1 mph - N/A   Partly Cloudy
4:55 AM 24.8 °F 14.6 °F 15.8 °F 69% 30.05 in 10.0 mi WSW 10.4 mph - N/A   Partly Cloudy
5:15 AM 24.8 °F 15.3 °F 15.8 °F 69% 30.03 in 10.0 mi SW 9.2 mph - N/A   Mostly Cloudy
5:35 AM 24.8 °F 15.3 °F 15.8 °F 69% 30.03 in 10.0 mi SW 9.2 mph - N/A   Overcast
5:55 AM 24.8 °F 16.1 °F 17.6 °F 74% 30.04 in 10.0 mi SW 8.1 mph - N/A   Overcast
6:15 AM 24.8 °F 14.6 °F 15.8 °F 69% 30.04 in 10.0 mi SSW 10.4 mph - N/A   Overcast
6:35 AM 24.8 °F 14.6 °F 15.8 °F 69% 30.03 in 10.0 mi SW 10.4 mph - N/A   Scattered Clouds
6:55 AM 23.0 °F 13.1 °F 15.8 °F 74% 30.03 in 10.0 mi SW 9.2 mph - N/A   Mostly Cloudy
7:15 AM 24.8 °F 14.6 °F 15.8 °F 69% 30.03 in 10.0 mi WSW 10.4 mph - N/A   Partly Cloudy
7:35 AM 24.8 °F 14.6 °F 15.8 °F 69% 30.03 in 10.0 mi WSW 10.4 mph - N/A   Clear
7:55 AM 23.0 °F 13.1 °F 15.8 °F 74% 30.03 in 10.0 mi SW 9.2 mph - N/A   Scattered Clouds
8:15 AM 24.8 °F 16.1 °F 15.8 °F 69% 30.04 in 10.0 mi WSW 8.1 mph - N/A   Partly Cloudy
8:35 AM 24.8 °F 16.1 °F 15.8 °F 69% 30.04 in 10.0 mi WSW 8.1 mph - N/A   Scattered Clouds
8:55 AM 24.8 °F 14.6 °F 15.8 °F 69% 30.04 in 10.0 mi SW 10.4 mph - N/A   Overcast
9:15 AM 24.8 °F 15.3 °F 15.8 °F 69% 30.04 in 10.0 mi SW 9.2 mph - N/A   Overcast
9:35 AM 24.8 °F 16.9 °F 17.6 °F 74% 30.05 in 10.0 mi SW 6.9 mph - N/A   Mostly Cloudy
9:55 AM 26.6 °F 16.8 °F 17.6 °F 69% 30.05 in 10.0 mi SW 10.4 mph - N/A   Overcast
10:15 AM 28.4 °F 19.1 °F 19.4 °F 69% 30.05 in 10.0 mi SW 10.4 mph - N/A   Overcast
10:35 AM 28.4 °F 19.7 °F 19.4 °F 69% 30.07 in 10.0 mi WSW 9.2 mph - N/A   Overcast
10:55 AM 28.4 °F 19.7 °F 17.6 °F 64% 30.06 in 10.0 mi SW 9.2 mph - N/A   Overcast
11:15 AM 28.4 °F 19.7 °F 19.4 °F 69% 30.05 in 10.0 mi SW 9.2 mph - N/A   Overcast
11:35 AM 28.4 °F 20.4 °F 19.4 °F 69% 30.05 in 10.0 mi SW 8.1 mph - N/A   Overcast
11:55 AM 30.2 °F 20.8 °F 21.2 °F 69% 30.04 in 10.0 mi SW 11.5 mph - N/A   Overcast
12:15 PM 30.2 °F 21.3 °F 19.4 °F 64% 30.03 in 10.0 mi WSW 10.4 mph - N/A   Overcast
12:35 PM 30.2 °F 18.9 °F 19.4 °F 64% 30.05 in 10.0 mi WSW 16.1 mph - N/A   Overcast
12:55 PM 30.2 °F 19.8 °F 19.4 °F 64% 30.03 in 10.0 mi WSW 13.8 mph - N/A   Scattered Clouds
1:15 PM 28.4 °F 18.0 °F 19.4 °F 69% 30.03 in 10.0 mi WSW 12.7 mph - N/A   Clear
1:35 PM 30.2 °F 20.8 °F 19.4 °F 64% 30.03 in 10.0 mi WSW 11.5 mph - N/A   Clear
1:55 PM 30.2 °F 20.2 °F 19.4 °F 64% 30.03 in 10.0 mi WSW 12.7 mph 18.4 mph N/A   Clear
2:15 PM 30.2 °F 19.8 °F 19.4 °F 64% 30.03 in 10.0 mi WSW 13.8 mph - N/A   Mostly Cloudy
2:35 PM 30.2 °F 19.8 °F 19.4 °F 64% 30.03 in 10.0 mi WSW 13.8 mph - N/A   Overcast
2:55 PM 30.2 °F 18.9 °F 19.4 °F 64% 30.04 in 10.0 mi WSW 16.1 mph - N/A   Overcast
3:15 PM 30.2 °F 20.8 °F 21.2 °F 69% 30.04 in 10.0 mi WSW 11.5 mph - N/A   Overcast
3:35 PM 30.2 °F 20.8 °F 21.2 °F 69% 30.05 in 10.0 mi WSW 11.5 mph - N/A   Overcast
3:55 PM 30.2 °F 20.2 °F 21.2 °F 69% 30.05 in 10.0 mi WSW 12.7 mph - N/A   Overcast
4:15 PM 30.2 °F 19.8 °F 21.2 °F 69% 30.06 in 10.0 mi WSW 13.8 mph - N/A   Overcast
4:35 PM 30.2 °F 19.8 °F 21.2 °F 69% 30.08 in 10.0 mi WSW 13.8 mph - N/A   Overcast
4:55 PM 28.4 °F 17.5 °F 21.2 °F 74% 30.08 in 10.0 mi WSW 13.8 mph - N/A   Overcast
5:15 PM 28.4 °F 17.5 °F 19.4 °F 69% 30.08 in 10.0 mi WSW 13.8 mph - N/A   Mostly Cloudy
5:35 PM 26.6 °F 15.2 °F 19.4 °F 74% 30.09 in 10.0 mi WSW 13.8 mph - N/A   Partly Cloudy
5:55 PM 26.6 °F 15.2 °F 17.6 °F 69% 30.09 in 10.0 mi WSW 13.8 mph - N/A   Clear
6:15 PM 24.8 °F 14.6 °F 17.6 °F 74% 30.10 in 10.0 mi West 10.4 mph - N/A   Clear
6:35 PM 24.8 °F 16.9 °F 15.8 °F 69% 30.12 in 10.0 mi West 6.9 mph - N/A   Clear
6:55 PM 21.2 °F 11.7 °F 12.2 °F 68% 30.12 in 10.0 mi West 8.1 mph - N/A   Clear
7:15 PM 21.2 °F 11.7 °F 12.2 °F 68% 30.13 in 10.0 mi West 8.1 mph - N/A   Clear
7:35 PM 23.0 °F 13.9 °F 15.8 °F 74% 30.14 in 10.0 mi West 8.1 mph - N/A   Clear
7:55 PM 19.4 °F 8.6 °F 12.2 °F 74% 30.14 in 10.0 mi West 9.2 mph - N/A   Clear
8:15 PM 19.4 °F 9.5 °F 12.2 °F 74% 30.14 in 10.0 mi West 8.1 mph - N/A   Clear
8:35 PM 19.4 °F 8.6 °F 10.4 °F 68% 30.14 in 10.0 mi West 9.2 mph - N/A   Clear
8:55 PM 19.4 °F 8.6 °F 12.2 °F 74% 30.15 in 10.0 mi WNW 9.2 mph - N/A   Clear
9:15 PM 19.4 °F 8.6 °F 14.0 °F 80% 30.15 in 10.0 mi WNW 9.2 mph - N/A   Clear
9:35 PM 19.4 °F 9.5 °F 12.2 °F 74% 30.15 in 10.0 mi WNW 8.1 mph - N/A   Clear
9:55 PM 19.4 °F 7.9 °F 15.8 °F 86% 30.16 in 10.0 mi WNW 10.4 mph - N/A   Clear
10:15 PM 19.4 °F 9.5 °F 12.2 °F 74% 30.16 in 10.0 mi WNW 8.1 mph - N/A   Clear
10:35 PM 15.8 °F 6.1 °F 8.6 °F 73% 30.16 in 10.0 mi West 6.9 mph - N/A   Clear
10:55 PM 15.8 °F 5.1 °F 8.6 °F 73% 30.16 in 10.0 mi West 8.1 mph - N/A   Clear
11:15 PM 15.8 °F 7.2 °F 10.4 °F 79% 30.16 in 10.0 mi WSW 5.8 mph - N/A   Clear
11:35 PM 19.4 °F 9.5 °F 12.2 °F 74% 30.17 in 10.0 mi WSW 8.1 mph - N/A   Clear
11:55 PM 15.8 °F 6.1 °F 8.6 °F 73% 30.16 in 10.0 mi SW 6.9 mph - N/A   Clear